Content
SEND FEEDBACK

Daily
Averages
Monthly
Summary
United States of America

CHELSEA, MICHIGAN


Home > North America > United States > Michigan
Elevation: 900 feet     Latitude: 42 19N     Longitude: 084 01W

WEATHER
 
SELECT A DAY
Number of Records: 208,144;   Date Range: 1/1/95 - 11/26/14
 
SHARE

PRINT THIS DATA

[ ← Previous Day ]
WEATHER ALMANAC - JULY 28, 2013
[ Next Day → ]
[ °C ]   °F
Weather ElementAverageHighLow
Temperature57.3 °F64 °F (5:53 pm)48 °F (4:53 am)
Dewpoint50.6 °F53.1 °F (7:53 pm)46.9 °F (4:53 am)
Humidity79.3 %97 % (2:53 am)63 % (2:53 pm)
Barometer29.90 in29.99 in (10:53 pm)29.85 in (2:53 am)
Wind Speed8.2 mph17.3 mph (5:53 pm)
Wind Gust21.9 mph (3:53 pm)
Weather ElementAverage
Visibility10 mi
Wind DirectionSSW (216 °)

Weather ElementTotal
Precipitation---
Heating Degree Days9 (Base 65)
Growing Degree Days6 (Base 50)
Averaged from 25 records on July 28, 2013
WEATHER CONDITIONS BREAKOUT
WIND DIRECTION BREAKOUT
WEATHER BY HOUR - JULY 28, 2013
[ °C ]   °F
Local TimeTemperatureDewpointHumidityBarometerVisibilityWind DirectionWind SpeedGust SpeedPrecipitationEventsConditions
1:53 AM53.1 °F51.1 °F93 %29.86 in10.0 miWSW (240°)4.6 mphMostly Cloudy
2:53 AM48.9 °F48.0 °F97 %29.85 in9.0 miWSW (240°)3.5 mphClear
3:53 AM48.9 °F48.0 °F97 %29.85 in10.0 miSW (230°)3.5 mphClear
4:53 AM48.0 °F46.9 °F96 %29.86 in10.0 miSW (230°)3.5 mphScattered Clouds
5:53 AM48.9 °F46.9 °F93 %29.86 in10.0 miCalmMostly Cloudy
6:53 AM50.0 °F48.9 °F96 %29.87 in10.0 miSouth (180°)5.8 mphScattered Clouds
7:53 AM52.0 °F50.0 °F93 %29.89 in10.0 miSSW (200°)4.6 mphScattered Clouds
8:53 AM57.0 °F52.0 °F83 %29.89 in10.0 miSSW (200°)5.8 mphPartly Cloudy
9:53 AM57.9 °F51.1 °F78 %29.90 in10.0 miSSW (200°)10.4 mphOvercast
10:07 AM60.8 °F51.8 °F72 %29.89 in10.0 miVariable6.9 mphOvercast
10:51 AM60.8 °F51.8 °F72 %29.89 in10.0 miSW (230°)10.4 mphOvercast
10:53 AM61.0 °F51.1 °F70 %29.89 in10.0 miSW (230°)12.7 mphOvercast
11:53 AM62.1 °F51.1 °F67 %29.89 in10.0 miWSW (240°)15.0 mph18.4 mphOvercast
12:53 PM63.0 °F51.1 °F65 %29.88 in10.0 miWSW (250°)13.8 mph18.4 mphOvercast
1:53 PM63.0 °F51.1 °F65 %29.90 in10.0 miSW (230°)11.5 mph20.7 mphOvercast
2:53 PM63.0 °F50.0 °F63 %29.89 in10.0 miWest (260°)11.5 mphOvercast
3:53 PM63.0 °F50.0 °F63 %29.91 in10.0 miWSW (240°)16.1 mph21.9 mph0.00 inOvercast
4:53 PM63.0 °F52.0 °F67 %29.91 in10.0 miWSW (240°)11.5 mph0.00 inOvercast
5:53 PM64.0 °F51.1 °F63 %29.92 in10.0 miWest (280°)17.3 mph20.7 mphMostly Cloudy
6:53 PM61.0 °F48.9 °F64 %29.94 in10.0 miWest (280°)11.5 mphOvercast
7:53 PM60.1 °F53.1 °F78 %29.95 in10.0 miWest (260°)4.6 mph0.00 inOvercast
8:53 PM57.0 °F53.1 °F87 %29.96 in10.0 miSW (220°)4.6 mphOvercast
9:53 PM55.9 °F53.1 °F90 %29.98 in10.0 miWSW (250°)4.6 mphClear
10:53 PM55.9 °F51.1 °F84 %29.99 in10.0 miWSW (240°)5.8 mphClear
11:53 PM55.0 °F51.1 °F86 %29.99 in10.0 miSW (230°)4.6 mphOvercast
Hourly data recorded from KARB, located miles away from Chelsea, Michigan







STORIES FROM OUR PARTNERS